Dumas, Arkansas, United States (71639)
Lat: 33.89N, Lon: 91.49W
Wx Zone: ARZ065
Local Info
Past Weather Observations for Thursday, April 28, 2016

NOTE: This archive is for the closest National Weather Service station to Dumas. Information may differ from the station used for current weather conditions.

Click here for Long-term Archive

Time Weather Temperature Dewpoint Humidity Pressure Winds Precip Visibility
23:53
Clear
64°F / 18°C 59°F / 15°C 83% 29.92 in
(1013 mb)
Calm - 10SM
22:53
Clear
64°F / 18°C 61°F / 16°C 88% 29.92 in
(1013 mb)
Calm - 10SM
21:53
Clear
64°F / 18°C 61°F / 16°C 88% 29.92 in
(1013 mb)
Calm - 10SM
20:53
Clear
66°F / 19°C 61°F / 16°C 83% 29.92 in
(1013 mb)
Calm - 10SM
19:53
Clear
68°F / 20°C 63°F / 17°C 83% 29.92 in
(1013 mb)
Calm - 10SM
18:53
Clear
75°F / 24°C 59°F / 15°C 57% 29.92 in
(1013 mb)
Calm - 10SM
17:53
Clear
84°F / 29°C 57°F / 14°C 40% 29.92 in
(1013 mb)
Calm - 10SM
16:53
Clear
84°F / 29°C 55°F / 13°C 37% 29.92 in
(1013 mb)
ENE 6.9 mph
(ENE 11 kph)
- 10SM
15:53
Clear
86°F / 30°C 54°F / 12°C 33% 29.89 in
(1012 mb)
NE 8.1 mph
(NE 13 kph)
- 10SM
14:53
Clear
86°F / 30°C 54°F / 12°C 33% 29.92 in
(1013 mb)
NE 6.9 mph
(NE 11 kph)
- 10SM
13:53
Clear
84°F / 29°C 54°F / 12°C 35% 29.92 in
(1013 mb)
NE 5.8 mph
(NE 9 kph)
- 10SM
12:53
Clear
82°F / 28°C 52°F / 11°C 35% 29.92 in
(1013 mb)
Calm - 10SM
11:53
Clear
82°F / 28°C 55°F / 13°C 40% 29.95 in
(1014 mb)
E 4.6 mph
(E 7 kph)
- 10SM
10:53
Clear
81°F / 27°C 57°F / 14°C 45% 29.95 in
(1014 mb)
Variable 5.8 mph
(Variable 9 kph)
- 10SM
09:53
Clear
79°F / 26°C 59°F / 15°C 51% 29.95 in
(1014 mb)
ENE 9.2 mph
(ENE 15 kph)
- 10SM
08:53
Clear
75°F / 24°C 59°F / 15°C 57% 29.92 in
(1013 mb)
NE 8.1 mph
(NE 13 kph)
- 10SM
07:53
Clear
72°F / 22°C 59°F / 15°C 65% 29.92 in
(1013 mb)
NE 9.2 mph
(NE 15 kph)
- 10SM
06:53
Clear
66°F / 19°C 57°F / 14°C 73% 29.89 in
(1012 mb)
Variable 4.6 mph
(Variable 7 kph)
- 10SM
05:53
Clear
61°F / 16°C 57°F / 14°C 88% 29.89 in
(1012 mb)
Calm - 10SM
04:53
Clear
63°F / 17°C 61°F / 16°C 94% 29.83 in
(1010 mb)
Calm - 10SM
03:53
Clear
64°F / 18°C 63°F / 17°C 94% 29.83 in
(1010 mb)
W 3.5 mph
(W 6 kph)
- 10SM
02:53
Clear
64°F / 18°C 63°F / 17°C 94% 29.8 in
(1009 mb)
W 4.6 mph
(W 7 kph)
- 10SM
01:53
Clear
66°F / 19°C 63°F / 17°C 88% 29.77 in
(1008 mb)
W 4.6 mph
(W 7 kph)
- 10SM
00:53
Clear
66°F / 19°C 64°F / 18°C 94% 29.77 in
(1008 mb)
SSW 4.6 mph
(SSW 7 kph)
- 10SM
Time Weather Temperature Dewpoint Humidity Pressure Winds Precip Visibility


Weather for websites

WeatherForYou.com, LLC is not responsible for any damages or problems caused by this service. Current weather conditions are obtained from the closest station including government and personal stations which may have varying degrees of accuracy. Weather forecasts are derived from the NOAA NDFD. Like all things, this site belongs to Jesus Christ... He just trusts us to maintain it. If you have any questions or comments email webmaster@weatherforyou.com

Copyright © 2016, WeatherForYou.com LLC. All rights reserved.